Location: ??????
(33.3472°N, 35.4764°E)
Time: 07:33:35
(UTC+00:00)

Cosmos 1331 Rocket - Pass Details

Date: 21 August 2019
Orbit: 750 x 778 km, 74.0° (Epoch: 20 September)

Event Time Altitude Azimuth Distance (km) Brightness Sun altitude
Exits shadow 00:34:25 73° 74° (ENE) 812 4.1 -28.5°
Drops below altitude 10° 00:39:25 10° 21° (NNE) 2,330 7.2 -27.7°
Sets 00:41:49 0° 19° (NNE) 3,263 8.1 -27.4°
